Dewpoint
38 38 39 38 36 35 34 35 35 35 35 36 36 37 37 38 37 37 37 36 35 34 34 33 32 32 33 36 38 39 39 40 40 40 41 41 41 41 40 40 40 40 39 39 39 38 38 38 38 39 39 39 39 40 40 40 40 40 41 41 41 42 43 43 43 44 44 45 45 45 45 45 44 44 44 44 44 43 42 42 41 40 39 38 38 38
37 36 36 36 36 35 34 35 36 36 36 36 36 36 37 36 36 35 35 36 36 35 34 33 32 32 31 34 36 38 39 39 40 40 40 40 40 40 39 39 39 39 38 38 38 38 38 39 39 39 39 39 39 40 40 39 39 40 41 41 42 42 42 42 43 43 44 44 44 45 45 44 44 44 43 43 42 41 41 40 39 39 38 38 38 38
33 32 32 34 35 35 35 35 36 36 36 36 36 36 36 35 35 35 35 36 35 35 34 33 33 32 32 33 36 38 38 39 39 39 39 38 38 38 38 38 38 38 38 38 38 38 39 39 40 40 40 39 39 39 39 38 38 39 40 41 41 41 41 42 42 42 43 43 43 44 44 43 43 42 41 41 40 39 39 38 38 39 39 38 38 38
31 31 31 32 34 34 35 35 35 36 36 36 36 36 36 35 35 35 35 34 34 33 33 33 32 32 32 32 34 36 38 38 38 38 37 37 37 37 37 37 37 38 38 38 38 39 39 39 39 39 39 38 38 38 38 37 37 38 39 40 41 41 41 41 41 41 41 41 42 42 42 42 41 41 41 40 39 38 38 38 39 39 39 38 39 39
31 31 32 32 32 33 34 35 36 36 36 36 36 35 34 34 34 34 34 34 33 33 32 32 32 32 31 31 33 36 37 37 37 36 36 36 36 36 37 37 38 38 38 38 38 38 38 38 38 38 37 37 37 37 37 37 37 37 38 39 39 39 39 39 38 38 39 39 40 41 41 41 41 40 40 39 39 38 38 38 39 39 39 39 40 40
30 31 32 32 32 32 34 35 35 36 36 35 35 34 33 33 33 33 33 33 33 32 32 32 31 31 31 32 34 36 36 36 36 36 36 36 36 37 37 38 38 38 38 38 38 37 37 37 37 36 36 36 36 36 36 36 36 37 37 37 37 37 36 36 36 36 36 37 38 39 40 40 40 40 40 39 39 38 38 38 38 39 40 40 41 41
31 32 32 32 32 33 33 34 35 35 35 35 35 34 34 33 32 32 32 32 32 31 31 31 31 31 30 32 34 35 34 35 35 35 36 36 37 37 38 38 38 37 37 37 37 36 36 36 36 36 36 36 36 36 36 36 36 36 36 36 36 35 35 35 36 36 36 37 38 39 40 40 40 39 39 38 38 38 37 38 38 39 40 41 41 41
31 31 32 32 32 33 34 34 34 34 34 34 34 34 34 34 33 32 31 30 29 30 31 32 31 31 30 30 31 32 32 32 32 33 35 36 38 38 38 37 37 36 36 36 36 36 36 36 36 36 36 36 36 36 36 36 36 36 36 35 35 34 35 35 36 36 37 38 38 39 39 39 38 38 38 37 37 37 37 38 38 39 40 40 41 41
31 31 31 31 32 32 33 34 34 33 33 33 34 34 34 33 32 32 31 30 30 30 32 32 32 32 31 30 30 30 31 32 32 33 35 36 36 36 36 36 36 35 35 35 35 36 35 35 35 35 35 35 36 36 36 36 36 36 35 35 34 34 34 35 36 36 37 38 38 38 37 37 37 36 37 36 36 37 37 38 38 38 39 39 39 39
30 30 30 31 31 32 33 33 33 33 31 32 32 32 32 32 32 32 32 32 32 32 33 34 33 32 31 30 30 30 31 32 35 37 37 36 36 35 34 34 33 34 35 35 36 36 36 35 35 34 34 35 35 35 36 36 35 35 34 34 34 34 34 35 36 36 36 36 36 36 36 36 36 36 36 36 36 37 37 37 37 37 37 37 37 37
28 29 29 30 31 32 32 33 33 32 28 29 30 31 32 32 32 32 32 33 33 34 35 35 34 32 31 30 30 29 30 32 34 36 37 36 35 35 33 33 33 33 35 35 36 36 36 36 35 34 34 34 34 34 34 34 33 33 33 33 33 33 34 34 35 35 35 35 35 35 35 36 36 36 36 36 36 36 36 36 36 35 35 35 35 35
28 29 29 30 31 32 32 32 32 31 30 31 32 32 33 33 34 34 35 35 35 35 35 34 33 32 31 30 29 30 31 32 33 34 33 32 32 32 32 32 32 33 34 35 36 36 36 36 35 34 33 33 33 32 32 32 32 32 32 32 33 33 34 34 34 34 34 35 35 35 35 35 35 35 35 35 34 34 34 34 34 34 34 34 34 34
29 29 29 31 32 33 33 32 33 33 33 34 34 34 35 36 36 36 36 36 36 35 34 33 32 32 31 29 29 31 32 32 32 31 30 30 30 29 29 29 30 31 32 33 33 34 35 35 34 33 32 32 32 32 31 31 32 32 32 32 33 33 33 33 33 34 34 34 34 34 34 34 34 34 33 33 33 33 33 33 33 33 33 33 34 34
29 30 32 32 33 34 34 35 35 36 36 36 36 36 36 37 37 36 36 35 35 35 34 32 31 29 28 27 29 32 32 30 29 28 28 28 28 28 28 29 30 31 32 32 32 32 32 32 31 31 31 30 30 30 31 31 32 32 32 32 32 32 32 33 33 33 33 33 33 33 33 33 33 33 33 33 33 32 33 33 33 33 34 34 34 35
32 33 34 34 35 35 36 36 36 36 36 36 36 36 36 36 36 36 35 34 34 34 32 30 28 27 26 25 29 32 29 28 27 27 26 27 27 28 29 30 30 31 31 30 29 28 29 29 27 27 27 27 28 29 30 30 31 32 32 32 32 32 32 32 32 32 32 32 32 32 32 32 32 32 32 32 32 32 33 33 33 34 34 35 35 36
35 36 35 35 35 36 36 36 36 35 35 36 36 36 35 35 35 35 35 34 34 32 30 28 26 25 24 26 29 31 28 27 26 26 26 27 28 28 29 29 28 28 27 27 26 26 26 25 25 25 25 27 28 29 30 30 31 32 32 31 31 31 31 31 32 32 32 32 32 32 32 32 32 32 32 32 32 32 33 33 34 34 35 35 36 36
36 36 35 34 34 34 35 36 35 35 34 34 35 35 35 35 35 35 34 34 32 31 29 27 26 24 23 24 27 28 28 27 26 26 27 27 27 27 28 27 27 25 25 25 25 24 24 24 23 23 24 27 28 29 30 30 31 31 31 31 31 31 31 31 31 31 31 31 31 31 31 31 31 31 32 32 32 33 33 34 34 34 34 35 35 35
35 34 33 33 33 33 34 34 34 33 33 34 34 35 35 35 35 34 33 33 32 30 28 27 25 24 23 23 25 27 27 26 26 26 26 26 26 26 26 26 25 25 24 24 24 24 23 23 23 23 25 27 28 29 29 30 30 30 30 30 30 30 30 30 30 30 30 31 31 31 31 31 31 32 32 32 32 33 33 33 34 34 34 34 34 35
33 33 32 32 32 33 34 33 32 32 32 33 34 34 34 34 33 33 32 32 31 29 28 26 25 25 24 24 26 27 27 26 26 26 27 26 25 26 25 25 25 25 24 24 23 23 23 22 23 25 27 27 28 28 29 29 29 29 30 30 30 30 30 30 30 30 30 30 30 30 31 31 31 32 32 32 33 33 33 33 34 34 34 34 34 35
33 33 32 32 32 32 32 32 32 33 33 34 34 33 32 32 31 31 30 30 29 28 27 26 25 24 24 24 25 25 25 25 26 26 26 25 25 25 25 25 25 24 23 23 23 22 22 21 22 23 26 27 27 28 28 28 28 29 29 29 29 29 29 29 30 30 30 30 30 30 31 31 32 32 32 32 33 33 33 34 34 34 34 35 35 35
32 32 32 33 32 32 31 32 32 33 34 33 32 31 30 29 28 29 29 28 27 27 26 24 24 24 24 23 23 23 24 25 26 27 26 25 24 24 24 24 24 23 23 22 22 21 21 20 20 21 24 26 27 27 27 27 28 28 28 28 29 29 29 29 29 29 30 30 30 31 31 32 32 32 32 33 33 33 34 34 34 35 35 35 36 36
31 31 32 32 32 32 32 32 33 34 34 32 31 29 29 28 27 28 28 27 27 25 24 24 24 24 24 23 23 23 23 26 27 28 27 24 22 22 22 23 23 22 22 21 20 20 20 20 19 20 24 26 26 27 27 27 27 27 28 28 28 28 29 29 29 29 30 30 31 31 32 32 32 32 32 33 33 34 34 34 35 35 36 36 36 36
31 31 32 32 32 31 31 31 32 32 33 32 30 29 29 29 28 28 28 27 26 24 23 23 23 23 23 23 23 23 23 26 28 28 27 23 21 20 21 22 22 22 21 20 20 20 20 19 19 20 23 25 26 26 26 27 27 27 27 28 28 28 28 29 29 29 30 30 31 31 32 32 32 32 33 33 34 34 34 35 35 36 36 36 36 37
30 30 30 31 31 31 30 30 30 31 32 31 30 30 30 30 30 29 28 27 25 23 23 23 22 22 21 22 22 22 22 25 27 27 25 23 21 21 21 21 22 21 21 21 21 21 20 19 19 19 21 23 24 25 26 26 27 27 27 27 27 28 28 28 29 29 30 30 31 31 32 32 32 32 33 33 34 34 35 35 35 36 36 36 36 36
31 31 31 32 32 31 31 30 31 31 31 30 30 30 29 29 28 27 26 25 23 23 22 21 20 20 20 21 21 21 21 24 27 28 25 23 22 21 21 21 21 20 21 21 21 21 20 19 18 18 18 20 23 24 25 26 26 27 27 27 27 27 28 28 29 29 30 30 31 31 31 32 32 32 33 34 34 34 35 35 36 36 36 36 36 36
32 32 32 32 32 32 31 31 31 31 31 30 30 29 28 26 25 24 23 23 23 23 22 20 20 19 20 20 20 20 21 25 27 28 26 24 22 21 21 21 21 21 22 22 22 21 20 19 18 17 17 18 21 24 25 25 26 26 26 27 27 27 27 28 28 29 29 30 30 31 31 32 32 32 33 34 34 35 35 35 36 36 36 36 36 35
32 32 32 32 32 32 31 31 31 31 31 31 31 30 29 26 24 23 23 23 24 23 22 21 20 20 20 19 20 20 21 24 27 27 26 24 23 21 20 21 21 22 22 22 21 21 21 19 18 17 16 16 18 22 24 25 25 25 26 26 26 27 27 27 28 28 29 29 30 30 31 32 32 33 33 34 34 35 35 35 36 36 36 36 35 34
31 31 32 32 32 32 31 31 31 31 31 32 32 32 30 27 25 24 24 25 25 24 23 21 21 20 20 20 20 21 21 22 24 26 26 24 23 21 21 21 22 22 22 21 20 20 20 19 18 17 16 17 18 20 22 24 24 25 25 25 26 26 27 27 27 28 29 29 30 30 31 32 32 32 33 33 34 34 35 35 36 36 36 35 33 32
29 29 30 31 31 31 31 30 30 31 31 32 32 32 31 27 26 27 27 27 26 24 23 23 22 22 21 21 21 20 20 21 23 25 25 24 23 21 21 22 22 22 22 20 19 18 18 17 17 16 16 18 19 18 19 22 23 23 23 24 25 25 26 27 27 28 28 29 29 30 31 31 32 32 32 33 34 34 35 35 36 36 35 34 32 32
26 26 27 27 28 29 29 28 28 29 31 32 32 32 32 29 28 28 29 28 27 25 24 23 23 23 23 22 20 19 18 19 22 25 26 25 23 21 22 22 21 21 21 20 18 16 15 16 16 17 17 18 18 18 17 18 19 20 20 22 23 24 25 26 27 27 28 28 29 30 30 31 31 32 32 32 33 34 34 35 35 35 35 33 32 32
23 23 23 24 24 25 26 26 26 27 28 30 31 32 31 29 29 29 30 29 28 27 26 25 25 24 24 23 20 19 18 20 23 26 27 25 23 22 22 21 21 21 21 20 18 16 15 15 16 17 17 17 17 17 17 18 18 18 18 18 20 22 24 25 26 27 27 28 28 29 30 30 31 31 32 32 32 33 34 34 35 35 34 33 32 31
22 23 23 23 23 23 24 25 25 25 26 27 28 30 31 31 30 30 30 29 28 28 27 26 26 25 25 23 22 21 21 22 24 27 28 25 23 22 21 21 20 20 20 20 19 18 16 15 15 16 16 16 16 16 17 18 18 17 17 18 18 20 23 24 25 25 26 27 28 28 29 30 30 31 31 32 32 32 33 34 35 35 34 33 32 32
23 23 23 23 23 23 23 23 23 24 25 25 27 29 31 31 32 31 30 29 29 28 28 27 26 26 25 24 24 23 23 23 25 27 28 25 23 21 20 20 19 19 19 19 18 18 17 15 15 15 15 15 16 16 16 17 18 18 18 18 18 18 21 23 23 23 24 25 26 27 28 29 29 30 30 31 31 32 32 33 34 34 34 33 32 32
22 22 22 22 22 23 23 23 23 23 25 26 27 29 30 31 31 31 30 29 29 29 28 28 27 26 25 24 24 23 23 23 25 28 28 25 23 20 19 19 19 19 19 18 18 17 16 15 15 15 14 15 16 16 16 16 17 18 17 18 18 18 19 20 21 22 23 23 24 25 26 27 27 28 29 30 30 31 32 32 33 33 33 33 33 32
20 21 21 21 22 22 23 23 23 24 26 27 28 30 30 30 29 29 29 28 28 28 28 28 28 27 27 25 24 23 23 23 26 28 28 25 22 20 18 18 18 18 18 18 17 17 16 16 16 16 15 15 15 15 15 16 17 17 17 18 18 18 18 19 20 21 22 22 23 23 23 24 25 26 27 28 29 30 31 31 32 32 32 33 33 33
18 19 21 21 21 22 23 23 24 25 26 27 29 29 29 28 28 27 26 26 27 28 28 28 28 28 27 27 26 25 25 25 27 28 28 25 23 20 18 18 18 19 18 18 17 17 16 16 16 16 16 15 14 14 15 17 17 17 17 18 18 18 19 20 20 21 21 22 22 23 23 23 24 24 25 27 29 29 30 30 30 31 32 32 32 33
19 19 20 21 21 22 23 23 24 25 26 27 28 29 28 27 26 25 23 22 23 25 27 27 27 27 27 24 24 25 25 26 26 27 27 24 22 20 18 18 19 19 19 18 18 17 17 16 16 15 15 14 14 14 15 16 17 17 17 18 18 18 19 20 21 21 21 22 23 23 23 23 24 24 25 27 28 28 28 29 29 30 30 31 32 32
19 19 20 21 21 22 23 23 24 25 26 27 28 28 27 25 23 21 21 19 19 20 23 23 23 24 25 26 24 23 23 22 22 22 22 19 18 18 18 18 19 19 19 19 18 18 17 16 15 14 14 14 14 16 16 16 16 16 16 18 18 19 19 20 21 22 22 22 23 23 24 23 23 23 24 25 25 25 25 25 27 28 29 29 30 31
19 19 20 21 22 22 23 23 24 25 25 27 27 28 26 23 22 20 19 19 19 19 19 20 21 21 20 21 23 24 24 22 21 19 18 16 16 17 18 18 18 18 19 19 19 18 17 17 16 15 14 14 15 15 16 16 15 16 17 18 19 19 20 21 22 22 22 22 23 23 23 23 23 23 23 23 23 23 23 23 25 26 27 27 28 29
19 20 21 22 23 23 23 24 25 25 26 27 27 27 25 23 22 21 20 21 22 21 19 18 19 20 20 21 22 22 21 19 19 20 17 15 14 15 17 17 18 18 19 19 18 18 17 17 16 16 16 15 15 15 15 15 16 17 18 18 18 18 21 22 22 22 22 21 22 22 22 22 22 22 23 23 23 23 23 23 23 25 26 26 26 26
20 20 21 22 22 23 24 25 25 26 27 27 26 25 23 23 22 22 23 23 23 23 22 22 21 19 17 15 14 15 17 17 19 19 16 15 14 14 15 16 18 18 18 18 17 17 17 17 16 16 16 15 15 15 15 15 17 18 20 18 18 19 21 22 22 22 21 21 21 22 23 23 23 23 23 23 23 23 23 23 23 24 26 26 26 26
21 21 21 21 22 23 23 25 26 27 27 26 26 25 24 23 22 22 22 22 22 21 22 21 20 19 17 17 16 15 15 15 16 18 17 15 14 14 14 16 17 18 18 17 17 17 17 17 17 16 16 15 15 15 14 15 17 18 19 19 20 20 21 22 21 21 21 21 21 22 23 23 22 22 23 23 23 23 24 24 25 26 26 26 26 26
20 21 21 21 22 23 24 26 26 27 26 25 26 26 24 22 22 23 22 20 20 21 21 20 19 18 18 17 17 17 16 14 14 15 18 16 15 15 16 16 16 16 17 16 16 16 16 17 17 16 15 15 15 14 14 15 16 18 19 20 21 20 19 19 20 20 21 21 21 22 22 22 22 23 23 23 23 23 23 24 25 26 27 26 26 26
20 20 21 21 22 23 24 24 25 25 25 26 27 27 25 23 23 23 21 20 20 20 20 19 18 18 16 17 17 18 18 16 14 14 17 20 21 20 18 17 16 15 15 15 15 16 16 16 16 16 15 15 15 15 15 15 16 18 19 20 21 20 19 20 20 20 20 21 21 22 22 23 23 23 23 23 23 23 23 23 23 23 25 26 26 27
20 20 21 21 22 22 23 23 24 24 25 26 27 27 26 24 23 22 21 20 20 20 19 18 18 18 17 17 17 17 17 17 17 18 17 20 22 22 20 19 18 17 16 15 15 15 15 15 16 16 16 16 15 15 15 16 17 18 20 21 21 21 20 21 21 20 20 21 21 22 22 23 23 23 23 23 23 23 23 23 23 23 24 25 26 27
20 20 20 21 21 21 22 23 23 24 24 25 27 27 25 23 21 19 20 19 19 18 18 17 16 16 17 17 17 17 16 17 17 17 17 17 18 18 19 19 19 19 18 17 17 16 16 16 16 16 16 16 15 15 15 17 18 19 20 20 20 20 20 21 21 21 21 21 21 22 23 23 23 23 23 23 23 23 23 23 23 23 24 24 25 27
20 20 20 20 21 21 22 22 23 23 24 25 26 26 25 23 21 20 19 18 18 18 18 17 16 14 14 16 17 17 17 16 16 16 16 17 17 18 18 18 19 20 19 19 18 18 18 18 17 16 15 15 14 15 16 18 19 20 20 20 20 20 20 20 20 21 21 22 22 22 23 23 23 23 23 23 23 23 23 23 24 24 24 25 26 27
20 20 20 20 20 21 21 22 22 23 23 25 25 25 24 23 22 21 19 18 17 18 19 18 17 15 15 16 17 17 17 17 16 16 16 16 17 17 17 17 18 18 19 19 20 20 20 19 18 17 16 15 15 16 18 19 20 20 20 20 20 20 20 20 21 21 22 22 22 22 23 23 23 23 23 23 23 23 23 23 24 24 25 26 27 27
20 20 20 20 20 21 21 21 22 23 23 24 25 24 22 23 23 21 18 17 16 16 16 16 16 16 16 16 17 18 18 17 16 16 16 16 16 17 17 17 17 17 17 18 18 18 18 20 21 20 18 17 17 18 19 19 20 20 20 20 20 20 20 20 21 22 22 22 22 23 23 23 23 23 23 23 23 23 23 23 24 24 25 26 27 28
20 20 20 20 20 20 21 21 22 23 23 24 24 23 22 20 19 19 17 17 16 15 14 14 14 14 16 17 17 17 17 16 16 15 15 16 16 16 16 16 16 16 16 16 16 16 16 17 20 23 23 22 21 20 20 19 20 20 20 20 20 20 20 21 21 22 23 23 23 23 23 23 24 24 24 24 23 23 23 23 24 24 25 26 27 28
20 20 20 20 20 20 21 21 22 23 23 24 24 24 22 20 19 18 17 17 17 16 14 13 13 14 17 18 17 17 17 16 15 15 15 16 16 16 16 16 16 16 15 15 15 15 15 15 16 18 19 22 23 23 21 20 20 20 20 20 20 21 21 21 21 22 23 23 23 23 23 24 24 24 24 24 24 23 23 23 24 24 25 27 27 28